Regional Weather Roundup
Issued by NWS

Home | Current Version | Previous Version | Text Only | Print | Product List | Glossary Off
Versions: 1 2 3 4 5 6 7 8 9 10 11 12 13 14 15 16 17 18 19 20 21 22 23 24 25 26 27 28 29 30 31 32 33 34 35 36 37 38 39 40 41 42 43 44 45 46 47 48 49 50

000
ASUS43 KMPX 171710
RWRMN
WEATHER ROUNDUP FOR MINNESOTA
NATIONAL WEATHER SERVICE TWIN CITIES/CHANHASSEN MN
1100 AM CST SUN DEC 17 2017


NOTE: "FAIR" INDICATES FEW OR NO CLOUDS BELOW 12,000 FEET WITH NO
SIGNIFICANT WEATHER AND/OR OBSTRUCTIONS TO VISIBILITY. N/A MEANS
CURRENT SKY AND/OR WEATHER CONDITIONS ARE NOT AVAILABLE.

MNZ060>063-068>070-171800-
   Twin Cities Metro

CITY           SKY/WX    TMP DP  RH WIND       PRES   REMARKS
TWIN CITIES    CLOUDY    26  24  92 CALM      30.07F FOG
ST PAUL        CLOUDY    26  23  88 CALM      30.09F FOG
CRYSTAL        CLOUDY    23  19  85 CALM      30.08S FOG
BLAINE         CLOUDY    25  25 100 CALM      30.08R FOG
LAKEVILLE      CLOUDY    23  23 100 CALM      30.06F FOG
EDEN PRAIRIE   CLOUDY    26  22  84 CALM      30.06F FOG
SOUTH ST PAUL  CLOUDY    26  24  93 CALM      30.08F FOG
LAKE ELMO      CLOUDY    27  27 100 CALM      30.08F FOG
$$
MNZ001>005-007-008-013>017-022>024-027-028-171800-
   Northwest Minnesota

CITY           SKY/WX    TMP DP  RH WIND       PRES   REMARKS
BEMIDJI        CLOUDY    26  25  98 SW6       29.99F WCI  19
HALLOCK        SUNNY     18  16  93 S7        29.97S WCI   8
ROSEAU         SUNNY     21  16  79 S7        29.96S WCI  13
WARROAD        SUNNY     21  19  93 SW7       29.96S WCI  13
THIEF RVR FALL PTSUNNY   20  19  96 S8        30.00F FOG     WCI  10
CROOKSTON      SUNNY     18  18 100 SW5       30.02F WCI  11
FOSSTON        CLOUDY    25  23  93 SW9       30.00F FOG     WCI  15
DETROIT LAKES  MOSUNNY   27  27 100 S6        30.03R WCI  20
MOORHEAD       CLOUDY    27  27 100 CALM      30.04F FOG
PARK RAPIDS    CLOUDY    25  23  92 S9        30.02S FOG     WCI  15
MAHNOMEN       CLOUDY    26  25  96 S8        30.01F WCI  18
$$
MNZ006-009>011-018-025>026-171800-
   North Central Minnesota

CITY           SKY/WX    TMP DP  RH WIND       PRES   REMARKS
BAUDETTE       CLOUDY    26  24  92 SW7       29.95F WCI  18
FLAG ISLAND    MOSUNNY   21  19  93 S3        29.92F
INTL FALLS     CLOUDY    26  23  88 SW9       29.97F FOG     WCI  17
WASKISH        PTSUNNY   27  25  93 SW9       29.98F WCI  17
BIG FORK       CLOUDY    27  25  93 S6        30.00S FOG     WCI  20
LONGVILLE      CLOUDY    25  25 100 S5        30.04F FOG     WCI  19
GRAND RAPIDS   CLOUDY    22  21  96 S9        30.05F FOG     WCI  12
CRANE LAKE     CLOUDY    23  21  93 S3        30.02F
ORR            CLOUDY    23  21  93 S5        29.98F WCI  17
COOK           CLOUDY    25  21  86 S3        30.02S
WALKER         CLOUDY    25  23  93 S7        30.01F WCI  17
$$
MNZ012-019>021-037-171800-
   Northeast Minnesota

CITY           SKY/WX    TMP DP  RH WIND       PRES   REMARKS
DULUTH         CLOUDY    21  21 100 W3        30.03F FOG
ELY            CLOUDY    21  19  93 S9        30.03S WCI  11
HIBBING        CLOUDY    21  19  92 VRB7      30.03F FOG     WCI  12
EVELETH        CLOUDY    20  17  87 S9        30.05S WCI   9
DULUTH HARBOR  CLOUDY    25  21  86 CALM      30.10F
TWO HARBORS    CLOUDY    28  23  80 SW3       30.04F
SILVER BAY     CLOUDY    25  23  93 SW3       30.04F
GRAND MARAIS     N/A     28  23  81 W7        30.08S WCI  21
G MARAIS ARPRT CLOUDY    21  18  86 SW3       30.01F FOG
$$
MNZ029>031-032-039>041-046>048-054>057-064-171800-
   West Central Minnesota

CITY           SKY/WX    TMP DP  RH WIND       PRES   REMARKS
FERGUS FALLS   FOG       28  28 100 S7        30.08F VSB 1/2 WCI  21
WHEATON        CLOUDY    30  28  93 S5        30.08S FOG     WCI  25
MORRIS         CLOUDY    28  28 100 S7        30.06F FOG     WCI  21
ALEXANDRIA     CLOUDY    27  26  96 SW5       30.06R FOG     WCI  22
ELBOW LAKE     CLOUDY    28  28 100 S7        30.06S FOG     WCI  21
WADENA         CLOUDY    27  27 100 SW5       30.04S FOG     WCI  21
GLENWOOD       FOG       27  25  93 S3        30.06F VSB 1/4
APPLETON       CLOUDY    28  27  93 CALM      30.07F FOG
BENSON         FOG       27  27 100 SW5       30.08F VSB 1   WCI  21
ORTONVILLE     CLOUDY    28  27  93 S6        30.06F FOG     WCI  22
MADISON        CLOUDY    30  30 100 CALM      30.07F FOG
WILLMAR        CLOUDY    27  25  93 CALM      30.08F FOG
$$
MNZ033>034-036-042>043-049>051-058-059-171800-
   Central Minnesota

CITY           SKY/WX    TMP DP  RH WIND       PRES   REMARKS
ST CLOUD       CLOUDY    23  19  85 CALM      30.08S
SAUK CENTRE    CLOUDY    24  23  97 S3        30.07S FOG
PAYNESVILLE    CLOUDY    25  22  90 CALM      30.07F
AITKIN         CLOUDY    21  19  93 SW5       30.04F FOG     WCI  15
PINE RIVER     FOG       23  21  93 S6        30.07F VSB 3/4 WCI  16
BRAINERD       CLOUDY    24  22  91 S8        30.06S FOG     WCI  15
STAPLES        CLOUDY    25  25 100 SW6       30.05S FOG     WCI  18
LONG PRAIRIE   CLOUDY    25  23  93 SE5       30.06S FOG     WCI  19
LITTLE FALLS   CLOUDY    25  18  74 CALM      30.08S
LITCHFIELD     CLOUDY    27  21  80 CALM      30.08S
BUFFALO        CLOUDY    23  19  85 CALM      30.10S
MAPLE LAKE     CLOUDY    25  22  89 NW3       30.09S
HUTCHINSON     CLOUDY    25  21  84 NE3       30.09R
$$
MNZ037-044-045-052-053-171800-
   East Central Minnesota

CITY           SKY/WX    TMP DP  RH WIND       PRES   REMARKS
PRINCETON      CLOUDY    25  21  86 CALM      30.08F
MORA           CLOUDY    23  18  80 CALM      30.10S
CAMBRIDGE      PTSUNNY   25  19  80 CALM      30.09F
RUSH CITY      CLOUDY    22  20  93 CALM      30.09F FOG
MOOSE LAKE     CLOUDY    23  19  86 CALM      30.05F
HINCKLEY       CLOUDY    23  19  86 CALM      30.08F
CLOQUET        CLOUDY    21  19  93 CALM      30.05F
MCGREGOR       CLOUDY    25  23  93 S5        30.06F WCI  19
$$
MNZ071>073-080-081-089-090-097-098-171800-
   Southwest Minnesota

CITY           SKY/WX    TMP DP  RH WIND       PRES   REMARKS
MONTEVIDEO     CLOUDY    27  27 100 CALM      30.07F FOG
GRANITE FALLS  CLOUDY    28  25  88 CALM      30.09S FOG
CANBY          CLOUDY    30  29  96 CALM      30.07F FOG
MARSHALL       CLOUDY    28  25  88 CALM      30.07S FOG
REDWOOD FALLS  CLOUDY    28  23  81 N3        30.07F
OLIVIA         CLOUDY    28  25  86 CALM      30.06F FOG
PIPESTONE      CLOUDY    27  27 100 N3        30.04R FOG
WINDOM           N/A     27  16  63 N3        30.04S HAZE
WORTHINGTON    CLOUDY    26  25  96 N6        30.05R FOG     WCI  19
JACKSON        MOSUNNY   28  23  80 N3        30.03S
TRACY          CLOUDY    27  27 100 N3        30.06R FOG
SLAYTON        CLOUDY    26  26  99 N5        30.05R FOG     WCI  20
$$
MNZ065>067-074>077-082>085-091>093-171800-
   South Central Minnesota

CITY           SKY/WX    TMP DP  RH WIND       PRES   REMARKS
MANKATO        CLOUDY    25  21  85 E3        30.06F FOG
NEW ULM        CLOUDY    25  19  80 CALM      30.06F
ST JAMES       CLOUDY    27  21  80 N3        30.06F
FAIRMONT       CLOUDY    26  22  84 NE6       30.05S WCI  19
GLENCOE        CLOUDY    26  25  96 N3        30.07F
FARIBAULT      CLOUDY    25  25 100 CALM      30.05F FOG
OWATONNA       CLOUDY    27  25  93 NE3       30.04F FOG
WASECA         CLOUDY    25  23  93 NE3       30.06F FOG
ALBERT LEA     CLOUDY    27  25  93 E3        30.03S FOG
$$
MNZ078>079-086>088-094>096-171800-
   Southeast Minnesota

CITY           SKY/WX    TMP DP  RH WIND       PRES   REMARKS
ROCHESTER      FOG       27  26  96 E7        30.03S VSB 3/4 WCI  19
RED WING       CLOUDY    27  23  86 CALM      30.07F FOG
STANTON        CLOUDY    27  24  91 CALM      30.05F FOG
DODGE CENTER   FOG       25  25 100 CALM      30.03S VSB 1/4
WINONA           N/A     30  28  93 SE5       30.09S WCI  25
AUSTIN         CLOUDY    27  25  93 CALM      30.03F FOG
PRESTON        FOG       27  26  96 E3        30.04S VSB 1/2
$$
ABBREVIATIONS USED IN REMARKS
   TC - TEMPERATURES IN CELSIUS
  WCI - WIND CHILL INDEX
   HX - HEAT INDEX
  VSB - VISIBILITY
$$



USA.gov is the U.S. government's official web portal to all federal, state and local government web resources and services.